Time,TemperatureF,DewpointF,PressureIn,WindDirection,WindDirectionDegrees,WindSpeedMPH,WindSpeedGustMPH,Humidity,HourlyPrecipIn,Conditions,Clouds,dailyrainin,SoftwareType,DateUTC
2013-09-16 11:51:00,54.2,50.7,30.21,ENE,68,6.3,6.3,88,2.59,,,0.00,WUHU216HW,2013-09-16 15:51:00,
2013-09-16 11:56:00,54.2,50.7,30.21,NNE,23,4.0,6.3,88,2.59,,,0.00,WUHU216HW,2013-09-16 15:56:00,
2013-09-16 12:01:00,54.2,50.7,30.22,NE,45,10.1,10.1,88,2.59,,,0.47,WUHU216HW,2013-09-16 16:01:00,
2013-09-16 12:06:00,53.8,50.3,30.22,NNE,23,2.5,10.1,88,2.59,,,0.47,WUHU216HW,2013-09-16 16:06:00,
2013-09-16 12:12:00,54.0,50.5,30.22,NNE,23,4.3,7.6,88,2.59,,,0.47,WUHU216HW,2013-09-16 16:12:00,
2013-09-16 12:17:00,54.0,50.5,30.22,NW,315,1.1,7.6,88,2.59,,,0.47,WUHU216HW,2013-09-16 16:17:00,
2013-09-16 12:22:00,54.0,50.5,30.22,NNE,23,6.3,7.6,88,2.59,,,0.47,WUHU216HW,2013-09-16 16:22:00,
2013-09-16 12:27:00,53.8,50.3,30.22,NE,45,4.5,6.9,88,2.59,,,0.47,WUHU216HW,2013-09-16 16:27:00,
2013-09-16 12:32:00,54.0,50.5,30.22,ENE,68,5.6,6.9,88,2.59,,,0.47,WUHU216HW,2013-09-16 16:32:00,
2013-09-16 12:37:00,54.0,50.5,30.23,NE,45,8.1,8.1,88,2.59,,,0.47,WUHU216HW,2013-09-16 16:37:00,
2013-09-16 12:42:00,53.8,50.3,30.23,ENE,68,2.5,8.1,88,2.59,,,0.47,WUHU216HW,2013-09-16 16:42:00,
2013-09-16 12:47:00,54.0,50.5,30.23,East,90,4.3,6.9,88,2.59,,,0.47,WUHU216HW,2013-09-16 16:47:00,
2013-09-16 12:52:00,54.2,51.0,30.23,NNE,23,9.2,9.8,89,2.59,,,0.47,WUHU216HW,2013-09-16 16:52:00,
2013-09-16 12:56:00,54.2,50.7,30.23,NE,45,7.6,9.8,88,2.59,,,0.47,WUHU216HW,2013-09-16 16:56:00,
2013-09-16 13:02:00,54.2,50.4,30.23,ESE,113,4.9,9.2,87,2.59,,,0.94,WUHU216HW,2013-09-16 17:02:00,
2013-09-16 13:07:00,54.2,50.4,30.23,NE,45,6.3,8.3,87,2.59,,,0.94,WUHU216HW,2013-09-16 17:07:00,
2013-09-16 13:12:00,54.4,50.6,30.23,SE,135,8.7,9.8,87,2.59,,,0.94,WUHU216HW,2013-09-16 17:12:00,
2013-09-16 13:17:00,54.4,50.2,30.23,NNE,23,3.6,9.8,86,2.59,,,0.94,WUHU216HW,2013-09-16 17:17:00,
2013-09-16 13:22:00,54.4,50.2,30.24,West,270,6.5,9.4,86,2.59,,,0.94,WUHU216HW,2013-09-16 17:22:00,
2013-09-16 13:27:00,54.4,50.2,30.24,NNE,23,4.0,7.8,86,2.59,,,0.94,WUHU216HW,2013-09-16 17:27:00,
2013-09-16 13:32:00,54.4,50.2,30.24,NNE,23,2.5,7.8,86,2.59,,,0.94,WUHU216HW,2013-09-16 17:32:00,
2013-09-16 13:37:00,54.4,50.2,30.24,ENE,68,2.0,7.2,86,2.59,,,0.94,WUHU216HW,2013-09-16 17:37:00,
2013-09-16 13:42:00,54.5,50.4,30.24,NE,45,5.6,8.3,86,2.59,,,0.94,WUHU216HW,2013-09-16 17:42:00,
2013-09-16 13:47:00,54.5,50.4,30.25,NE,45,2.5,8.3,86,2.59,,,0.94,WUHU216HW,2013-09-16 17:47:00,
2013-09-16 13:52:00,54.4,50.2,30.25,NE,45,5.1,7.4,86,2.59,,,0.94,WUHU216HW,2013-09-16 17:52:00,
2013-09-16 13:57:00,53.8,49.7,30.25,North,0,4.5,9.2,86,2.59,,,0.94,WUHU216HW,2013-09-16 17:57:00,
2013-09-16 14:02:00,53.5,49.3,30.25,North,0,3.6,9.2,86,2.59,,,1.40,WUHU216HW,2013-09-16 18:02:00,
2013-09-16 14:07:00,53.5,49.3,30.25,East,90,2.2,5.8,86,2.59,,,1.40,WUHU216HW,2013-09-16 18:07:00,
2013-09-16 14:12:00,53.3,49.1,30.25,NE,45,3.8,5.4,86,2.59,,,1.40,WUHU216HW,2013-09-16 18:12:00,
2013-09-16 14:17:00,53.1,49.0,30.25,ENE,68,2.9,8.5,86,2.59,,,1.40,WUHU216HW,2013-09-16 18:17:00,
2013-09-16 14:22:00,52.9,48.8,30.26,East,90,6.3,8.5,86,2.59,,,1.40,WUHU216HW,2013-09-16 18:22:00,
2013-09-16 14:27:00,52.9,48.8,30.25,NE,45,4.0,8.1,86,2.59,,,1.40,WUHU216HW,2013-09-16 18:27:00,
2013-09-16 14:32:00,52.9,49.2,30.26,ENE,68,4.0,6.3,87,2.59,,,1.40,WUHU216HW,2013-09-16 18:32:00,
2013-09-16 14:37:00,52.9,48.8,30.26,ENE,68,3.6,6.3,86,2.59,,,1.40,WUHU216HW,2013-09-16 18:37:00,
2013-09-16 14:42:00,52.7,48.6,30.26,East,90,2.0,6.3,86,2.59,,,1.40,WUHU216HW,2013-09-16 18:42:00,
2013-09-16 14:47:00,52.6,48.4,30.26,NE,45,4.0,6.3,86,2.59,,,1.40,WUHU216HW,2013-09-16 18:47:00,
2013-09-16 14:52:00,52.6,48.4,30.26,NE,45,3.6,6.7,86,2.59,,,1.40,WUHU216HW,2013-09-16 18:52:00,
2013-09-16 14:57:00,52.6,48.4,30.26,ENE,68,2.5,6.9,86,2.59,,,1.40,WUHU216HW,2013-09-16 18:57:00,
2013-09-16 15:02:00,52.6,48.8,30.26,ENE,68,2.2,6.9,87,2.59,,,1.87,WUHU216HW,2013-09-16 19:02:00,
2013-09-16 15:07:00,52.7,49.0,30.26,ESE,113,3.4,7.6,87,2.59,,,1.87,WUHU216HW,2013-09-16 19:07:00,
2013-09-16 15:12:00,52.7,49.0,30.26,ENE,68,4.7,7.6,87,2.59,,,1.87,WUHU216HW,2013-09-16 19:12:00,
2013-09-16 15:17:00,52.6,48.4,30.26,ESE,113,6.9,7.4,86,2.59,,,1.87,WUHU216HW,2013-09-16 19:17:00,
2013-09-16 15:22:00,52.6,48.4,30.26,ESE,113,5.1,7.4,86,2.59,,,1.87,WUHU216HW,2013-09-16 19:22:00,
2013-09-16 15:27:00,52.9,48.8,30.26,South,180,1.8,7.4,86,2.59,,,1.87,WUHU216HW,2013-09-16 19:27:00,
2013-09-16 15:32:00,52.9,48.8,30.26,NE,45,4.7,7.4,86,2.59,,,1.87,WUHU216HW,2013-09-16 19:32:00,
2013-09-16 15:37:00,53.1,49.0,30.26,ESE,113,3.4,5.4,86,2.59,,,1.87,WUHU216HW,2013-09-16 19:37:00,
2013-09-16 15:42:00,53.1,48.7,30.26,ESE,113,4.3,6.3,85,2.59,,,1.87,WUHU216HW,2013-09-16 19:42:00,
2013-09-16 15:47:00,53.3,48.9,30.26,ENE,68,3.6,6.3,85,2.59,,,1.87,WUHU216HW,2013-09-16 19:47:00,
2013-09-16 15:52:00,53.3,48.6,30.26,ENE,68,3.4,6.5,84,2.59,,,1.87,WUHU216HW,2013-09-16 19:52:00,
2013-09-16 15:57:00,53.1,48.4,30.26,ESE,113,3.1,6.5,84,2.59,,,1.87,WUHU216HW,2013-09-16 19:57:00,
2013-09-16 16:02:00,53.3,48.6,30.27,NE,45,3.8,5.4,84,2.59,,,2.34,WUHU216HW,2013-09-16 20:02:00,
2013-09-16 16:07:00,53.1,48.4,30.27,ESE,113,5.6,5.6,84,2.59,,,2.34,WUHU216HW,2013-09-16 20:07:00,
2013-09-16 16:12:00,53.3,48.6,30.27,SE,135,3.1,5.6,84,2.59,,,2.34,WUHU216HW,2013-09-16 20:12:00,
2013-09-16 16:17:00,53.3,48.6,30.27,SE,135,1.6,5.6,84,2.59,,,2.34,WUHU216HW,2013-09-16 20:17:00,
2013-09-16 16:22:00,53.5,48.8,30.27,SE,135,2.2,6.3,84,2.59,,,2.34,WUHU216HW,2013-09-16 20:22:00,
2013-09-16 16:27:00,53.5,48.8,30.27,NE,45,4.3,6.3,84,2.59,,,2.34,WUHU216HW,2013-09-16 20:27:00,
2013-09-16 16:32:00,53.5,48.4,30.27,ENE,68,3.6,4.9,83,2.59,,,2.34,WUHU216HW,2013-09-16 20:32:00,
2013-09-16 16:37:00,53.6,48.6,30.27,ENE,68,2.9,4.9,83,2.59,,,2.34,WUHU216HW,2013-09-16 20:37:00,
2013-09-16 16:42:00,53.6,48.6,30.27,SE,135,0.4,4.7,83,2.59,,,2.34,WUHU216HW,2013-09-16 20:42:00,
2013-09-16 16:47:00,53.6,48.6,30.27,SE,135,1.1,4.7,83,2.59,,,2.34,WUHU216HW,2013-09-16 20:47:00,
2013-09-16 16:52:00,53.3,48.0,30.27,NE,45,3.6,4.3,82,2.59,,,2.34,WUHU216HW,2013-09-16 20:52:00,
2013-09-16 16:57:00,53.1,47.8,30.27,ENE,68,3.4,5.1,82,2.59,,,2.34,WUHU216HW,2013-09-16 20:57:00,
2013-09-16 17:02:00,52.9,47.6,30.28,East,90,3.6,5.1,82,2.59,,,2.81,WUHU216HW,2013-09-16 21:02:00,
2013-09-16 17:07:00,52.9,47.6,30.28,East,90,2.2,4.3,82,2.59,,,2.81,WUHU216HW,2013-09-16 21:07:00,
2013-09-16 17:12:00,52.9,47.6,30.28,NNE,23,3.4,4.3,82,2.59,,,2.81,WUHU216HW,2013-09-16 21:12:00,
2013-09-16 17:17:00,53.1,47.8,30.28,ENE,68,4.5,4.7,82,2.59,,,2.81,WUHU216HW,2013-09-16 21:17:00,
2013-09-16 17:22:00,53.3,48.2,30.28,SE,135,2.2,5.6,83,2.59,,,2.81,WUHU216HW,2013-09-16 21:22:00,
2013-09-16 17:27:00,53.3,48.0,30.28,ESE,113,2.5,5.6,82,2.59,,,2.81,WUHU216HW,2013-09-16 21:27:00,
2013-09-16 17:32:00,53.5,48.2,30.28,ENE,68,1.8,4.0,82,2.59,,,2.81,WUHU216HW,2013-09-16 21:32:00,
2013-09-16 17:37:00,53.5,48.2,30.28,NE,45,0.7,4.0,82,2.59,,,2.81,WUHU216HW,2013-09-16 21:37:00,
2013-09-16 17:42:00,53.6,48.3,30.28,NNE,23,2.5,4.7,82,2.59,,,2.81,WUHU216HW,2013-09-16 21:42:00,
2013-09-16 17:47:00,53.5,47.8,30.29,NE,45,1.8,4.7,81,2.59,,,2.81,WUHU216HW,2013-09-16 21:47:00,
2013-09-16 17:52:00,53.3,47.3,30.29,NE,45,2.5,4.0,80,2.59,,,2.81,WUHU216HW,2013-09-16 21:52:00,
2013-09-16 17:57:00,53.3,47.6,30.29,ESE,113,2.5,3.4,81,2.59,,,2.81,WUHU216HW,2013-09-16 21:57:00,
2013-09-16 18:02:00,53.1,47.2,30.29,NE,45,2.2,6.0,80,2.59,,,3.27,WUHU216HW,2013-09-16 22:02:00,
2013-09-16 18:07:00,53.1,47.2,30.29,ESE,113,1.6,6.3,80,2.59,,,3.27,WUHU216HW,2013-09-16 22:07:00,
2013-09-16 18:12:00,53.1,47.2,30.29,NE,45,2.7,6.3,80,2.59,,,3.27,WUHU216HW,2013-09-16 22:12:00,
2013-09-16 18:17:00,53.3,47.3,30.29,ESE,113,2.5,4.0,80,2.59,,,3.27,WUHU216HW,2013-09-16 22:17:00,
2013-09-16 18:22:00,53.5,47.5,30.29,NE,45,1.6,5.8,80,2.59,,,3.27,WUHU216HW,2013-09-16 22:22:00,
2013-09-16 18:27:00,53.6,47.3,30.29,ENE,68,0.4,5.8,79,2.59,,,3.27,WUHU216HW,2013-09-16 22:27:00,
2013-09-16 18:32:00,53.8,47.2,30.29,ENE,68,2.0,2.9,78,2.59,,,3.27,WUHU216HW,2013-09-16 22:32:00,
2013-09-16 18:37:00,54.4,47.6,30.29,ESE,113,1.8,2.9,78,2.59,,,3.27,WUHU216HW,2013-09-16 22:37:00,
2013-09-16 18:42:00,54.9,48.5,30.29,NE,45,0.9,2.9,79,2.59,,,3.27,WUHU216HW,2013-09-16 22:42:00,
2013-09-16 18:47:00,55.1,48.3,30.29,ESE,113,1.1,2.2,78,2.59,,,3.27,WUHU216HW,2013-09-16 22:47:00,
2013-09-16 18:52:00,55.1,48.0,30.29,ESE,113,1.8,2.7,77,2.59,,,3.27,WUHU216HW,2013-09-16 22:52:00,
2013-09-16 18:57:00,54.7,48.0,30.29,East,90,0.0,2.7,78,2.59,,,3.27,WUHU216HW,2013-09-16 22:57:00,
2013-09-16 19:02:00,54.4,47.3,30.29,ESE,113,0.4,2.0,77,2.59,,,3.74,WUHU216HW,2013-09-16 23:02:00,
2013-09-16 19:07:00,54.2,47.5,30.29,SE,135,0.2,1.1,78,2.59,,,3.74,WUHU216HW,2013-09-16 23:07:00,
2013-09-16 19:12:00,53.6,47.0,30.30,SSE,158,0.2,0.4,78,2.59,,,3.74,WUHU216HW,2013-09-16 23:12:00,
2013-09-16 19:17:00,53.5,46.8,30.30,SSE,158,0.0,0.4,78,2.59,,,3.74,WUHU216HW,2013-09-16 23:17:00,
2013-09-16 19:22:00,52.9,46.3,30.30,SSE,158,0.0,0.2,78,2.59,,,3.74,WUHU216HW,2013-09-16 23:22:00,
2013-09-16 19:27:00,52.6,46.3,30.30,SE,135,0.0,0.0,79,2.59,,,3.74,WUHU216HW,2013-09-16 23:27:00,
2013-09-16 19:32:00,52.2,45.9,30.30,SE,135,0.0,0.0,79,2.59,,,3.74,WUHU216HW,2013-09-16 23:32:00,
2013-09-16 19:37:00,52.0,46.1,30.30,SE,135,0.0,0.0,80,2.59,,,3.74,WUHU216HW,2013-09-16 23:37:00,
2013-09-16 19:42:00,51.8,45.9,30.30,SE,135,0.0,0.0,80,2.59,,,3.74,WUHU216HW,2013-09-16 23:42:00,
2013-09-16 19:47:00,51.5,45.5,30.31,SE,135,0.0,0.0,80,2.59,,,3.74,WUHU216HW,2013-09-16 23:47:00,
2013-09-16 19:52:00,51.1,45.2,30.31,SE,135,0.0,0.0,80,2.59,,,3.74,WUHU216HW,2013-09-16 23:52:00,
2013-09-16 19:57:00,50.8,45.1,30.31,SE,135,0.0,0.0,81,2.59,,,3.74,WUHU216HW,2013-09-16 23:57:00,
2013-09-16 20:02:00,50.6,44.9,30.31,SE,135,0.0,0.0,81,2.59,,,4.21,WUHU216HW,2013-09-17 00:02:00,
2013-09-16 20:04:00,50.4,44.7,30.31,SE,135,0.0,0.0,81,2.59,,,4.21,WUHU216HW,2013-09-17 00:04:00,
2013-09-16 20:07:00,50.4,44.7,30.31,SE,135,0.0,0.0,81,2.59,,,4.21,WUHU216HW,2013-09-17 00:07:00,
2013-09-16 20:12:00,50.4,44.7,30.31,SE,135,0.0,0.0,81,2.59,,,4.21,WUHU216HW,2013-09-17 00:12:00,
2013-09-16 20:34:00,49.1,43.8,30.33,SE,135,0.0,0.0,82,2.59,,,4.21,WUHU216HW,2013-09-17 00:34:00,
2013-09-16 20:39:00,49.0,43.7,30.33,SE,135,0.0,0.0,82,2.59,,,4.21,WUHU216HW,2013-09-17 00:39:00,
2013-09-16 20:44:00,48.8,43.5,30.33,SE,135,0.0,0.0,82,2.59,,,4.21,WUHU216HW,2013-09-17 00:44:00,
2013-09-16 20:49:00,48.6,43.3,30.33,SE,135,0.0,0.0,82,2.59,,,4.21,WUHU216HW,2013-09-17 00:49:00,
2013-09-16 20:54:00,48.2,42.7,30.33,SE,135,0.0,0.0,81,2.59,,,4.21,WUHU216HW,2013-09-17 00:54:00,
2013-09-16 20:59:00,48.1,42.5,30.33,SE,135,0.0,0.0,81,2.59,,,4.21,WUHU216HW,2013-09-17 00:59:00,
2013-09-16 21:04:00,47.7,42.1,30.33,SE,135,0.0,0.0,81,2.59,,,4.68,WUHU216HW,2013-09-17 01:04:00,
2013-09-16 21:09:00,47.3,41.8,30.33,SE,135,0.0,0.0,81,2.59,,,4.68,WUHU216HW,2013-09-17 01:09:00,
2013-09-16 21:14:00,47.0,41.5,30.33,WSW,248,0.0,0.0,81,2.59,,,4.68,WUHU216HW,2013-09-17 01:14:00,
2013-09-16 21:19:00,46.4,41.0,30.34,SSW,203,0.4,0.7,81,2.59,,,4.68,WUHU216HW,2013-09-17 01:19:00,
2013-09-16 21:24:00,46.3,41.1,30.34,SW,225,0.4,0.7,82,2.59,,,4.68,WUHU216HW,2013-09-17 01:24:00,
2013-09-16 21:29:00,46.3,41.4,30.34,SSW,203,0.0,0.4,83,2.59,,,4.68,WUHU216HW,2013-09-17 01:29:00,
2013-09-16 21:34:00,46.4,41.6,30.34,SSE,158,0.4,0.4,83,2.59,,,4.68,WUHU216HW,2013-09-17 01:34:00,
2013-09-16 21:39:00,46.4,41.6,30.34,SSE,158,0.0,0.4,83,2.59,,,4.68,WUHU216HW,2013-09-17 01:39:00,
2013-09-16 21:44:00,46.4,41.6,30.34,SSE,158,0.0,0.4,83,2.59,,,4.68,WUHU216HW,2013-09-17 01:44:00,
2013-09-16 21:49:00,46.3,41.4,30.34,SSE,158,0.0,0.0,83,2.59,,,4.68,WUHU216HW,2013-09-17 01:49:00,
2013-09-16 21:54:00,46.1,41.2,30.34,SSE,158,0.0,0.0,83,2.59,,,4.68,WUHU216HW,2013-09-17 01:54:00,
2013-09-16 21:59:00,45.9,41.0,30.34,SSE,158,0.0,0.0,83,2.59,,,4.68,WUHU216HW,2013-09-17 01:59:00,
2013-09-16 22:04:00,45.7,40.9,30.34,SSE,158,0.0,0.0,83,2.59,,,5.14,WUHU216HW,2013-09-17 02:04:00,
2013-09-16 22:09:00,45.5,40.7,30.35,SSE,158,0.0,0.0,83,2.59,,,5.14,WUHU216HW,2013-09-17 02:09:00,
2013-09-16 22:14:00,45.4,40.5,30.35,SSE,158,0.0,0.0,83,2.59,,,5.14,WUHU216HW,2013-09-17 02:14:00,
2013-09-16 22:19:00,45.2,40.3,30.34,SSE,158,0.0,0.0,83,2.59,,,5.14,WUHU216HW,2013-09-17 02:19:00,
2013-09-16 22:24:00,45.0,40.1,30.34,SSE,158,0.0,0.0,83,2.59,,,5.14,WUHU216HW,2013-09-17 02:24:00,
2013-09-16 22:29:00,45.0,40.1,30.35,SSE,158,0.0,0.0,83,2.59,,,5.14,WUHU216HW,2013-09-17 02:29:00,
2013-09-16 22:34:00,45.0,40.5,30.34,SSE,158,0.0,0.0,84,2.59,,,5.14,WUHU216HW,2013-09-17 02:34:00,
2013-09-16 22:39:00,45.0,40.5,30.34,SSE,158,0.0,0.0,84,2.59,,,5.14,WUHU216HW,2013-09-17 02:39:00,
2013-09-16 22:44:00,45.0,40.5,30.34,SSE,158,0.0,0.0,84,2.59,,,5.14,WUHU216HW,2013-09-17 02:44:00,
2013-09-16 22:49:00,45.0,40.5,30.34,SE,135,0.0,0.0,84,2.59,,,5.14,WUHU216HW,2013-09-17 02:49:00,
2013-09-16 22:54:00,44.8,40.3,30.35,SE,135,0.0,0.0,84,2.59,,,5.14,WUHU216HW,2013-09-17 02:54:00,
2013-09-16 22:59:00,44.8,40.3,30.35,ESE,113,0.0,0.0,84,2.59,,,5.14,WUHU216HW,2013-09-17 02:59:00,
2013-09-16 23:04:00,44.6,40.2,30.35,ESE,113,0.0,0.2,84,2.59,,,5.61,WUHU216HW,2013-09-17 03:04:00,
2013-09-16 23:09:00,44.6,40.2,30.35,ESE,113,0.0,0.2,84,2.59,,,5.61,WUHU216HW,2013-09-17 03:09:00,
2013-09-16 23:14:00,44.3,39.8,30.35,ESE,113,0.0,0.0,84,2.59,,,5.61,WUHU216HW,2013-09-17 03:14:00,
2013-09-16 23:19:00,44.3,39.8,30.35,SSW,203,0.0,0.4,84,2.59,,,5.61,WUHU216HW,2013-09-17 03:19:00,
2013-09-16 23:24:00,44.3,39.8,30.35,NNW,338,0.0,0.9,84,2.59,,,5.61,WUHU216HW,2013-09-17 03:24:00,
2013-09-16 23:29:00,44.3,40.1,30.35,NNW,338,0.0,0.9,85,2.59,,,5.61,WUHU216HW,2013-09-17 03:29:00,
2013-09-16 23:34:00,44.3,40.1,30.35,NNW,338,0.0,0.0,85,2.59,,,5.61,WUHU216HW,2013-09-17 03:34:00,
2013-09-16 23:39:00,44.3,40.1,30.35,NNW,338,0.0,0.0,85,2.59,,,5.61,WUHU216HW,2013-09-17 03:39:00,
2013-09-16 23:44:00,44.3,40.1,30.35,North,0,0.0,0.7,85,2.59,,,5.61,WUHU216HW,2013-09-17 03:44:00,
2013-09-16 23:49:00,44.3,40.1,30.36,North,0,0.0,0.7,85,2.59,,,5.61,WUHU216HW,2013-09-17 03:49:00,
2013-09-16 23:54:00,43.9,39.7,30.36,North,0,0.0,0.0,85,2.59,,,5.61,WUHU216HW,2013-09-17 03:54:00,
2013-09-16 23:59:00,43.9,39.7,30.36,North,0,0.0,0.0,85,2.59,,,5.61,WUHU216HW,2013-09-17 03:59:00,